Live Position
Loading 3D Globe...
About SITRO-AIS-53
Group: 3 satellites
Description loading...
Upcoming Passes
Passes for default location (London). Set your location on the main map for personalized predictions.
Altitude History
Loading altitude history...
No altitude history available
Two-Line Element Set
1 59776U 24092D 26106.32738260 .00010365 00000-0 30996-3 0 9992
2 59776 97.6483 236.9892 0007151 18.5313 341.6189 15.34744988106256
Epoch: Apr 16, 2026 •
Age: 13 hours
Current Status
Altitude 470.2 km
Velocity 7.63 km/s
Sub-Earth Point 40.94°N,
95.47°W
Launch Date May 16, 2024
Age 1.9 years
Type other
Technical Details
Classification Payload
Mass 3.00 kg
Dry Mass 3.00 kg
Total Mass 3.00 kg
Length 0.30 m
Diameter 0.10 m
Span 0.30 m
Shape Box
Manufacturer SPUT
Bus Type Cubesat 3U
Phase Status In Orbit
Owner/State SITRO/RU
Most Searched
Loading...